Location: Unspecified
(50.7693°N, 0.0000°E)
Time: 03:02:31
(UTC+00:00)

Transit 2A - Pass Details

Date: 29 June 2019
Orbit: 594 x 964 km, 66.7° (Epoch: 19 July)

Event Time Altitude Azimuth Distance (km) Brightness Sun altitude
Rises 23:52:06 0° 232° (SW) 3,642 - -15.9°
Exits shadow 23:52:55 - 233° (SW) 3,351 9.0 -15.9°
Reaches altitude 10° 23:54:45 10° 236° (WSW) 2,698 8.5 -16.0°
Maximum altitude 00:01:00 56° 315° (NW) 1,116 7.0 -16.0°
Drops below altitude 10° 00:07:00 10° 33° (NNE) 2,592 9.6 -16.0°
Sets 00:09:30 0° 38° (NE) 3,489 10.3 -16.0°
